Regional Weather Roundup
Issued by NWS

Home | Current Version | Previous Version | Text Only | Print | Product List | Glossary On
Versions: 1 2 3 4 5 6 7 8 9 10 11 12 13 14 15 16 17 18 19 20 21 22 23 24 25 26 27 28 29 30 31 32 33 34 35 36 37 38 39 40 41 42 43 44 45 46 47 48 49 50
000
ASPQ40 PGUM 240810
RWRPQ
WEATHER ROUNDUP FOR THE MARIANAS AND MICRONESIA
NATIONAL WEATHER SERVICE TIYAN GU
600 PM CHST THU MAY 24 2018

GUZ001>004-240900-
MARIANA ISLANDS-

CITY           SKY/WX    TMP DP  RH WIND       PRES   REMARKS
GUAM AIRPORT   CLEAR     86  77  74 E9        29.82R HX  97
ANDERSEN AFB   MOCLDY    82  75  78 SE6       29.82R
ROTA AIRPORT   PTCLDY    82  75  78 E6        29.81R
TINIAN AP      MOCLDY    84  79  84 E5        29.80R HX  96
SAIPAN AP      PTCLDY    84  79  84 E7        29.81R HX  96

$$

PMZ161-240900-
REPUBLIC OF PALAU-

CITY           SKY/WX    TMP DP  RH WIND       PRES   REMARKS
KOROR AP       PTSUNNY   84  77  79 NE3       29.73R HX  94
KOROR WSO      PTSUNNY   86  79  79 CALM      29.74S HX  99

$$

PMZ171>174-240900-
FEDERATED STATES OF MICRONESIA-

CITY           SKY/WX    TMP DP  RH WIND       PRES   REMARKS
YAP AIRPORT    MOSUNNY   88  77  70 VRB5      29.74R HX 100
CHUUK AP       CLOUDY    84  77  79 VRB5      29.73S HX  94
POHNPEI AP     NOT AVBL
POHNPEI WSO    LGT RAIN  77  75  94 CALM      29.82R
KOSRAE AP      NOT AVBL

$$

PMZ181-240900-
REPUBLIC OF THE MARSHALL ISLANDS-

CITY           SKY/WX    TMP DP  RH WIND       PRES   REMARKS
KWAJALEIN AP   PTCLDY    84  77  79 E16       29.80R HX  94
MAJURO AP      NOT AVBL
MAJURO WSO     MOCLDY    84  75  74 E17       29.78R HX  92

$$




USA.gov is the U.S. government's official web portal to all federal, state and local government web resources and services.